Showing default

COSMOS 2338, 24726

Orbit data source: Space-Track

COSMOS 2338, 24726 is a payload satellite owned by VKS (CIS) in LEO that was launched on Fri, 14 Feb 1997 UTC via a TSIKLON-3 launch vehicle from the Plesetsk Missile And Space Complex (PKMTR). Payload-class satellites include a variety of spacecraft equipped with specific instruments for various scientific and technological missions. These include communications satellites like Starlink; space stations such as the ISS; scientific satellites like the Hubble; Earth observation satellites from companies like Planet Labs, Umbra, and HawkEye 360; GPS; miniature CubeSats for education and research; and military/defense satellites.

Loading next visibility...
Identifier
24726, 1997-006B
Orbit
LEO
Country
Flag of CISCIS
Related business
Manufacturer
NPO PM
Mission
Non-operational Defense Communications
Bus & Motor
STRELA-3, Unknown motor
Mass
225 kg wet, 225 kg dry
Launch date (UTC)
1997-02-14 (29 years ago)
Launch vehicle
TSIKLON-3
Launch site
Plesetsk Missile And Space Complex (PKMTR)
Object type
Payload
Rocket body
Debris
Shape & HBR
Cyl + 1 Ant, 3.5 m
Radar Cross Section
1.583 m², Medium (>0.1 m² and < 1m²)

Expand to show TLE details & history
Last TLE update: 7 hours ago

TLE from 7 hours ago
0 COSMOS 2338
1 24726U 97006B   26038.25374317  .00000047  00000-0  20868-3 0  9992
2 24726  82.6047 346.1667 0005868  34.1010 326.0457 12.61390914334091
Epoch: 2026-02-07T06:05Z
TLE epoch observation values (Epoch: 2026-02-07T06:05:23.409Z)
Latitude
-0.00001°
Longitude
117.43925°
Altitude
1,416.144 km
Speed
7.154 km/s
True Right ascension
23h 04m 40s
True Declination
0° 00' 00"
Sunlit
Object was in daylight at epoch
Visualization orbit readout
Latitude
Unknown
Longitude
Unknown
Altitude
Unknown
Speed
Unknown
Apparent Right ascension
Unknown
Apparent Declination
Unknown
Sunlit
N/A
Visualization observer readout
Local Sidereal Time
15:40:27
Azimuth
Unknown
Elevation
Unknown
Doppler factor
Unknown
Orbital elements
Apogee altitude
1,419.102 km
Perigee altitude
1,409.957 km
Semi-major axis
7,792.667 km
Eccentricity
0.00059
Inclination
82.6047°
RAAN
346.1667°
Arg. of periapsis
34.101°
True anomaly
326.00812°
Mean anomaly
326.0457°
Eccentric anomaly
326.02691°
Mean motion
3.15511 °/min
Orbital period
114.1 mins
BSTAR
0.00020868
Loading maneuver chart data...
Computing Atmospheric mass density...
Loading historical data...
Loading historical data...
Loading historical data...
Loading historical data...
Loading historical data...
Loading historical data...
Loading historical data...

Documentation

Showing up to 5 results
|